Tracking 23099 objects as of 13-May-2021
HD Live streaming from Space Station
objects crossing your sky now

SL-14 R/B

Track SL-14 R/B now!
10-day predictions


NORAD ID: 21233
Int'l Code: 1991-030B
Perigee: 1,192.7 km
Apogee: 1,219.0 km
Inclination: 82.5 °
Period: 109.4 minutes
Semi major axis: 7576 km
RCS: 5.0762 m2 (large)
Launch date: April 24, 1991
Source: Commonwealth of Independent States (former USSR) (CIS)
Launch site: PLESETSK MISSILE AND SPACE COMPLEX (PKMTR)

Note: This is a ROCKET BODY
aabbcc
Your satellite tracking list
Your tracking list is empty




NASA's NSSDC Master Catalog

Two Line Element Set (TLE):
1 21233U 91030B   21132.60540201 -.00000018  00000-0 -78928-4 0  9990
2 21233  82.5479  68.5602 0017347 148.9442  24.4569 13.16345160443820
Source of the keplerian elements: AFSPC